EWG4AV EDDL-LYTV

Flight info

Callsign EWG4AV
Flight time 0h 44m
Altitude 35000
Route DODEN7Z DODEN Y853 BOMBI DCT DETEV DCT DINKU/N0430F330 M867 XERUM DCT BAVAX DCT RADIZ DCT EKSUM DCT SABAD DCT UNIPA DCT NERRA DCT BIGLO L187 TAZ
Aircraft A320/M-SDE3FGHIRWY/LB1

Departure

Time 2026-05-08 16:26
Airport Düsseldorf Airport (EDDL)

Arrival

Time 2026-05-08 17:10
Airport Tivat Airport (LYTV)
Time Latitude Longitude Altitude Speed Heading
2026-05-08 15:43 51.28156 6.76725 127 ft 0 kts 276°
2026-05-08 16:14 51.28155 6.76730 128 ft 3 kts 276°
2026-05-08 16:15 51.28152 6.76772 127 ft 4 kts 286°
2026-05-08 16:15 51.28141 6.76802 126 ft 3 kts 323°
2026-05-08 16:15 51.28119 6.76817 125 ft 4 kts
2026-05-08 16:15 51.28095 6.76807 127 ft 2 kts 17°
2026-05-08 16:16 51.28094 6.76807 127 ft 0 kts 17°
2026-05-08 16:19 51.28104 6.76812 125 ft 6 kts 17°
2026-05-08 16:19 51.28187 6.76839 129 ft 15 kts
2026-05-08 16:19 51.28295 6.76829 123 ft 16 kts 322°
2026-05-08 16:19 51.28381 6.76715 125 ft 16 kts 322°
2026-05-08 16:20 51.28415 6.76630 124 ft 7 kts 259°
2026-05-08 16:20 51.28380 6.76547 123 ft 14 kts 232°
2026-05-08 16:20 51.28296 6.76370 124 ft 24 kts 233°
2026-05-08 16:20 51.28206 6.76180 126 ft 18 kts 233°
2026-05-08 16:21 51.28151 6.76065 127 ft 9 kts 233°
2026-05-08 16:21 51.28111 6.75981 129 ft 11 kts 232°
2026-05-08 16:21 51.28053 6.75861 128 ft 16 kts 232°
2026-05-08 16:21 51.27978 6.75702 127 ft 20 kts 233°
2026-05-08 16:22 51.27890 6.75518 124 ft 22 kts 233°
2026-05-08 16:22 51.27836 6.75396 123 ft 5 kts 252°
2026-05-08 16:22 51.27849 6.75345 121 ft 5 kts 322°
2026-05-08 16:22 51.27879 6.75319 122 ft 4 kts 333°
2026-05-08 16:23 51.27884 6.75315 122 ft 0 kts 333°
2026-05-08 16:23 51.27895 6.75305 124 ft 5 kts 333°
2026-05-08 16:23 51.27951 6.75261 122 ft 12 kts 334°
2026-05-08 16:23 51.28011 6.75303 121 ft 4 kts 54°
2026-05-08 16:24 51.28014 6.75310 120 ft 0 kts 53°
2026-05-08 16:25 51.28077 6.75445 125 ft 47 kts 53°
2026-05-08 16:25 51.28425 6.76172 127 ft 114 kts 53°
2026-05-08 16:26 51.29015 6.77411 154 ft 162 kts 53°
2026-05-08 16:26 51.29675 6.78827 846 ft 158 kts 52°
2026-05-08 16:26 51.30340 6.80242 1546 ft 163 kts 52°
2026-05-08 16:26 51.31067 6.81768 1963 ft 184 kts 51°
2026-05-08 16:27 51.31889 6.83494 2289 ft 207 kts 52°
2026-05-08 16:27 51.32813 6.85433 2672 ft 232 kts 52°
2026-05-08 16:27 51.33829 6.87599 3170 ft 252 kts 53°
2026-05-08 16:27 51.34711 6.90071 3986 ft 260 kts 69°
2026-05-08 16:28 51.35115 6.92913 4884 ft 266 kts 86°
2026-05-08 16:28 51.34999 6.95838 5744 ft 269 kts 100°
2026-05-08 16:28 51.34687 6.98813 6620 ft 273 kts 100°
2026-05-08 16:28 51.34378 7.01839 7439 ft 278 kts 100°
2026-05-08 16:29 51.34065 7.04918 8271 ft 283 kts 100°
2026-05-08 16:29 51.33749 7.08047 9100 ft 287 kts 100°
2026-05-08 16:29 51.33430 7.11223 9936 ft 292 kts 100°
2026-05-08 16:29 51.33044 7.14458 10511 ft 304 kts 107°
2026-05-08 16:30 51.32204 7.17693 10740 ft 327 kts 121°
2026-05-08 16:30 51.30342 7.21554 11407 ft 340 kts 136°
2026-05-08 16:30 51.28637 7.24205 12119 ft 345 kts 137°
2026-05-08 16:30 51.26919 7.26916 12854 ft 349 kts 136°
2026-05-08 16:31 51.25190 7.29664 13574 ft 353 kts 136°
2026-05-08 16:31 51.23434 7.32452 14234 ft 357 kts 136°
2026-05-08 16:31 51.21662 7.35258 14877 ft 360 kts 136°
2026-05-08 16:31 51.19876 7.38073 15515 ft 363 kts 136°
2026-05-08 16:32 51.18067 7.40914 16152 ft 366 kts 136°
2026-05-08 16:32 51.16240 7.43772 16804 ft 370 kts 136°
2026-05-08 16:32 51.14399 7.46645 17440 ft 373 kts 137°
2026-05-08 16:32 51.12528 7.49527 18060 ft 376 kts 137°
2026-05-08 16:33 51.05297 7.60513 20185 ft 385 kts 138°
2026-05-08 16:33 50.97018 7.71749 22167 ft 397 kts 145°
2026-05-08 16:34 50.64000 8.25009 28520 ft 436 kts 136°
2026-05-08 16:34 50.58264 8.34311 29443 ft 442 kts 136°
2026-05-08 16:34 50.49620 8.48280 30579 ft 449 kts 136°
2026-05-08 16:35 50.40815 8.62400 31552 ft 456 kts 137°
2026-05-08 16:35 50.31950 8.76527 32915 ft 453 kts 137°
2026-05-08 16:35 50.23159 8.90507 34197 ft 451 kts 137°
2026-05-08 16:35 50.14307 9.04442 35124 ft 454 kts 137°
2026-05-08 16:36 50.09163 9.12509 35088 ft 447 kts 137°
2026-05-08 16:36 49.91617 9.39870 35129 ft 446 kts 137°
2026-05-08 16:37 49.73800 9.66720 35037 ft 446 kts 140°
2026-05-08 16:37 49.55635 9.92796 35124 ft 446 kts 139°
2026-05-08 16:38 49.37448 10.18764 35084 ft 446 kts 140°
2026-05-08 16:38 49.18476 10.42954 35122 ft 441 kts 153°
2026-05-08 16:39 48.97465 10.62072 35109 ft 443 kts 153°
2026-05-08 16:39 48.77230 10.83332 35034 ft 450 kts 135°
2026-05-08 16:40 48.68935 10.97253 33367 ft 440 kts 137°
2026-05-08 16:40 48.60874 11.10659 33002 ft 437 kts 137°
2026-05-08 16:40 48.50330 11.28131 33042 ft 441 kts 137°
2026-05-08 16:41 48.38952 11.46852 33058 ft 437 kts 138°
2026-05-08 16:42 48.13355 11.85308 32952 ft 430 kts 144°
2026-05-08 16:42 47.95711 12.09387 33152 ft 423 kts 144°
2026-05-08 16:42 47.86939 12.21264 33044 ft 429 kts 144°
2026-05-08 16:43 47.78139 12.33122 32882 ft 429 kts 144°
2026-05-08 16:43 47.69356 12.44899 32992 ft 420 kts 144°
2026-05-08 16:43 47.60461 12.56234 33136 ft 416 kts 151°
2026-05-08 16:44 47.41838 12.76933 32935 ft 420 kts 149°
2026-05-08 16:44 47.29481 12.90521 33073 ft 417 kts 149°
2026-05-08 16:45 47.20171 13.00726 33045 ft 418 kts 149°
2026-05-08 16:45 47.08819 13.13093 33050 ft 417 kts 149°
2026-05-08 16:46 46.89989 13.33439 33014 ft 423 kts 149°
2026-05-08 16:46 46.71015 13.53792 32962 ft 424 kts 149°
2026-05-08 16:47 46.51929 13.74068 33009 ft 423 kts 149°
2026-05-08 16:47 46.32900 13.94087 33042 ft 422 kts 150°
2026-05-08 16:48 46.14024 14.13802 33003 ft 423 kts 149°
2026-05-08 16:48 45.94963 14.33531 32977 ft 421 kts 149°
2026-05-08 16:49 45.75860 14.53124 32965 ft 422 kts 149°
2026-05-08 16:49 45.57391 14.74225 32942 ft 429 kts 144°
2026-05-08 16:50 45.38894 14.95671 32907 ft 429 kts 145°
2026-05-08 16:50 45.29637 15.06379 33158 ft 429 kts 145°
2026-05-08 16:50 45.20371 15.17033 33079 ft 427 kts 145°
2026-05-08 16:50 45.11649 15.27016 32812 ft 428 kts 145°
2026-05-08 16:51 45.08630 15.30466 32723 ft 432 kts 145°
2026-05-08 16:51 45.03959 15.35800 33029 ft 430 kts 145°
2026-05-08 16:51 44.99215 15.41192 33043 ft 428 kts 145°
2026-05-08 16:52 44.80717 15.62126 33019 ft 430 kts 145°
2026-05-08 16:52 44.62093 15.83048 32998 ft 428 kts 145°
2026-05-08 16:53 44.34160 16.14061 32931 ft 426 kts 145°
2026-05-08 16:53 44.15511 16.34560 32909 ft 428 kts 145°
2026-05-08 16:54 43.96589 16.54574 32882 ft 425 kts 149°
2026-05-08 16:54 43.77004 16.73172 32864 ft 426 kts 148°
2026-05-08 16:55 43.57434 16.91798 32845 ft 426 kts 148°
2026-05-08 16:55 43.37874 17.10245 32827 ft 426 kts 148°
2026-05-08 16:56 43.18267 17.28625 32797 ft 427 kts 148°
2026-05-08 16:56 43.06209 17.39847 32780 ft 427 kts 149°
2026-05-08 16:57 43.03297 17.42539 32326 ft 421 kts 149°
2026-05-08 16:57 42.93731 17.51353 30264 ft 410 kts 149°
2026-05-08 16:57 42.86347 17.63016 28031 ft 407 kts 126°
2026-05-08 16:57 42.80254 17.75467 26034 ft 395 kts 126°
2026-05-08 16:58 42.74218 17.87807 24181 ft 385 kts 126°
2026-05-08 16:58 42.68364 17.99754 22336 ft 374 kts 125°
2026-05-08 16:58 42.62649 18.11345 20632 ft 363 kts 125°
2026-05-08 16:58 42.57089 18.22555 18986 ft 354 kts 125°
2026-05-08 16:59 42.51672 18.33487 17375 ft 345 kts 124°
2026-05-08 16:59 42.46348 18.44183 15906 ft 338 kts 124°
2026-05-08 16:59 42.41138 18.54608 14444 ft 331 kts 124°
2026-05-08 16:59 42.36037 18.64785 12954 ft 322 kts 124°
2026-05-08 17:00 42.31074 18.74607 11580 ft 306 kts 124°
2026-05-08 17:00 42.29469 18.77669 11161 ft 301 kts 123°
2026-05-08 17:00 42.28278 18.79975 10824 ft 298 kts 120°
2026-05-08 17:00 42.27327 18.82442 10476 ft 295 kts 115°
2026-05-08 17:01 42.26425 18.84914 10120 ft 293 kts 115°
2026-05-08 17:01 42.25533 18.87366 9884 ft 286 kts 115°
2026-05-08 17:01 42.24667 18.89745 9636 ft 279 kts 115°
2026-05-08 17:01 42.23813 18.92100 9255 ft 274 kts 115°
2026-05-08 17:02 42.23004 18.94327 9123 ft 254 kts 115°
2026-05-08 17:02 42.22174 18.96333 8939 ft 238 kts 129°
2026-05-08 17:02 42.20925 18.97729 8546 ft 233 kts 153°
2026-05-08 17:02 42.19370 18.98293 8092 ft 234 kts 176°
2026-05-08 17:03 42.17769 18.97942 7619 ft 236 kts 201°
2026-05-08 17:03 42.16405 18.96720 7149 ft 238 kts 222°
2026-05-08 17:03 42.15207 18.95164 6721 ft 239 kts 221°
2026-05-08 17:03 42.14014 18.93619 6344 ft 236 kts 221°
2026-05-08 17:04 42.13035 18.91886 6057 ft 232 kts 249°
2026-05-08 17:04 42.12878 18.89794 5816 ft 223 kts 284°
2026-05-08 17:04 42.13545 18.88000 5595 ft 216 kts 317°
2026-05-08 17:04 42.14769 18.86942 5369 ft 208 kts 344°
2026-05-08 17:05 42.16129 18.86259 5145 ft 209 kts 344°
2026-05-08 17:05 42.17888 18.85365 4785 ft 212 kts 343°
2026-05-08 17:05 42.20685 18.83930 4179 ft 217 kts 343°
2026-05-08 17:05 42.23450 18.82500 3621 ft 207 kts 342°
2026-05-08 17:06 42.25046 18.81672 3256 ft 193 kts 342°
2026-05-08 17:06 42.26261 18.81041 3056 ft 180 kts 342°
2026-05-08 17:06 42.27383 18.80458 2833 ft 169 kts 341°
2026-05-08 17:06 42.28463 18.79953 2630 ft 155 kts 342°
2026-05-08 17:07 42.29443 18.79459 2420 ft 147 kts 340°
2026-05-08 17:07 42.30386 18.78978 2110 ft 142 kts 339°
2026-05-08 17:07 42.31298 18.78522 1897 ft 138 kts 340°
2026-05-08 17:07 42.32194 18.78087 1785 ft 137 kts 340°
2026-05-08 17:08 42.33096 18.77651 1529 ft 135 kts 340°
2026-05-08 17:08 42.33963 18.77234 1381 ft 133 kts 340°
2026-05-08 17:08 42.34825 18.76803 1230 ft 131 kts 338°
2026-05-08 17:08 42.35718 18.76347 1030 ft 135 kts 341°
2026-05-08 17:09 42.36611 18.75954 841 ft 137 kts 343°
2026-05-08 17:09 42.37499 18.75520 650 ft 136 kts 334°
2026-05-08 17:09 42.38291 18.74856 465 ft 136 kts 323°
2026-05-08 17:09 42.39012 18.74038 237 ft 135 kts 318°
2026-05-08 17:10 42.39714 18.73208 31 ft 133 kts 319°
2026-05-08 17:10 42.40341 18.72473 6 ft 97 kts 320°
2026-05-08 17:10 42.40725 18.72024 2 ft 47 kts 319°
2026-05-08 17:10 42.40889 18.71831 5 ft 17 kts 319°
2026-05-08 17:11 42.40968 18.71816 7 ft 12 kts 49°
2026-05-08 17:11 42.41024 18.71849 8 ft 8 kts 322°
2026-05-08 17:11 42.41065 18.71798 7 ft 8 kts 319°
2026-05-08 17:11 42.41108 18.71748 6 ft 8 kts 319°
2026-05-08 17:12 42.41148 18.71702 7 ft 6 kts 319°
2026-05-08 17:12 42.41177 18.71668 7 ft 5 kts 319°
2026-05-08 17:12 42.41201 18.71651 7 ft 2 kts
2026-05-08 17:12 42.41208 18.71659 7 ft 1 kts 38°
2026-05-08 17:13 42.41221 18.71684 9 ft 5 kts 55°
2026-05-08 17:13 42.41222 18.71701 9 ft 0 kts 96°
2026-05-08 17:13 42.41217 18.71711 9 ft 3 kts 130°
2026-05-08 17:13 42.41193 18.71709 8 ft 0 kts 205°
2026-05-08 17:16 42.41194 18.71707 8 ft 0 kts 180°